EW0767 Weather Reports


time (UTC)temp
F
wind
direction
speed
knots
gust
knots
rain 1hr
in
rain 24hr
in
rain mn
in
humidity
%
barometer
mb
20260502152257 49 64 0.0 0.9 0.00 0.15 0.15 86 1010.7
20260502151056 50 129 0.0 0.9 0.00 0.15 0.15 85 1010.4
20260502122301 46 205 0.0 0.0 0.00 0.15 0.15 98 1010.5
20260502121055 46 205 0.0 0.0 0.00 0.15 0.15 98 1010.7
20260502115301 46 205 0.0 0.0 0.00 0.15 0.15 98 1010.9
20260502112941 45 206 0.0 0.0 0.00 0.15 0.15 98 1010.7
20260502112258 45 205 0.0 0.0 0.00 0.15 0.15 98 1010.7
20260502111058 44 205 0.0 0.0 0.00 0.15 0.15 98 1010.5
20260502105946 44 206 0.0 0.0 0.00 0.15 0.15 98 1010.7
20260502105257 44 205 0.0 0.0 0.00 0.14 0.14 97 1010.9
20260502104057 44 205 0.0 0.0 0.00 0.12 0.12 97 1011.0
20260502102944 44 205 0.0 0.0 0.00 0.10 0.10 97 1010.8
20260502102301 44 194 0.0 0.0 0.00 0.07 0.07 97 1010.5
20260502101101 44 194 0.0 0.0 0.00 0.07 0.07 97 1010.3
20260502091056 44 194 0.0 0.0 0.00 0.02 0.02 96 1010.1
20260502065944 46 156 0.0 0.0 0.00 0.00 0.00 92 1010.2
20260502062942 47 156 0.0 0.0 0.00 0.00 0.00 90 1010.4
20260502062259 47 157 0.0 0.0 0.00 0.00 0.00 89 1010.4
20260502061059 47 157 0.0 0.0 0.00 0.00 0.00 88 1010.8
20260502055941 47 156 0.0 0.0 0.00 0.00 0.00 87 1010.5
20260502055258 47 157 0.0 0.0 0.00 0.00 0.00 86 1010.3
20260502052944 48 157 0.0 0.0 0.00 0.00 0.00 85 1010.3
20260502052255 48 157 0.0 0.0 0.00 0.00 0.00 83 1010.3
20260502051100 49 157 0.0 0.0 0.00 0.00 0.00 79 1010.5
20260502045942 49 156 0.0 0.0 0.00 0.00 0.00 79 1010.9
20260502045258 49 156 0.0 0.0 0.00 0.00 0.00 78 1011.0
20260502044100 49 157 0.0 0.0 0.00 0.00 0.00 78 1010.9
20260502042942 49 156 0.0 0.0 0.00 0.00 0.00 77 1010.9
20260502042259 49 157 0.0 0.0 0.00 0.00 0.00 75 1010.8
20260502041059 49 155 0.0 0.0 0.00 0.00 0.00 73 1010.5
20260502035941 49 155 0.0 0.0 0.00 0.00 0.00 73 1010.6
20260502035258 49 155 0.0 0.0 0.00 0.00 0.00 73 1010.5
20260502034057 49 155 0.0 0.0 0.00 0.00 0.00 73 1010.7
20260502032945 49 155 0.0 0.0 0.00 0.00 0.00 72 1010.7
20260502032256 49 155 0.0 0.0 0.00 0.00 0.00 70 1010.7
20260502031056 49 155 0.0 0.0 0.00 0.00 0.00 69 1010.7
20260502025944 48 155 0.0 0.0 0.00 0.00 0.00 68 1010.9
20260502025255 49 155 0.0 0.0 0.00 0.00 0.00 68 1010.9
20260502024100 49 155 0.0 0.0 0.00 0.00 0.00 65 1010.9
20260502022941 50 155 0.0 0.0 0.00 0.00 0.00 64 1010.8
20260502022258 50 155 0.0 0.0 0.00 0.00 0.00 64 1010.8
20260502021058 50 155 0.0 0.0 0.00 0.00 0.00 63 1010.8
20260502015939 49 205 0.0 0.0 0.00 0.00 0.00 61 1010.9
20260502015256 49 205 0.0 0.0 0.00 0.00 0.00 62 1010.8
20260502013944 50 205 0.0 0.0 0.00 0.00 0.00 60 1010.8
20260502012940 50 205 0.0 0.0 0.00 0.00 0.00 60 1010.7
20260502012257 51 205 0.0 0.0 0.00 0.00 0.00 59 1010.6
20260502005944 52 205 0.0 0.0 0.00 0.00 0.00 57 1010.3
20260502003940 53 204 0.0 0.0 0.00 0.00 0.00 56 1010.2
20260502002942 54 204 0.0 0.0 0.00 0.00 0.00 59 1010.1
20260502002300 54 204 0.0 0.0 0.00 0.00 0.00 56 1009.8
20260502001100 54 204 0.0 0.0 0.00 0.00 0.00 56 1009.7
20260501235941 55 204 0.0 0.0 0.00 0.00 0.00 52 1009.6
20260501235258 55 204 0.0 0.0 0.00 0.00 0.00 51 1009.5
20260501234058 56 204 0.0 0.0 0.00 0.00 0.00 48 1009.4
20260501232939 56 204 0.0 0.0 0.00 0.00 0.00 50 1009.3
20260501232257 56 204 0.0 0.0 0.00 0.00 0.00 47 1009.1
20260501231057 57 201 0.0 0.0 0.00 0.00 0.00 46 1009.0
20260501225255 58 217 0.0 0.0 0.00 0.00 0.00 46 1008.9
20260501224054 58 201 0.0 0.9 0.00 0.00 0.00 44 1009.0
20260501222942 59 228 0.0 0.0 0.00 0.00 0.00 46 1009.0
20260501222259 59 238 0.9 0.9 0.00 0.00 0.00 42 1008.9
20260501221058 59 273 0.9 1.7 0.00 0.00 0.00 43 1008.9
20260501215255 60 51 0.9 0.9 0.00 0.00 0.00 41 1008.8
20260501214054 60 210 0.0 0.9 0.00 0.00 0.00 42 1008.9
20260501212944 60 34 0.0 0.9 0.00 0.00 0.00 40 1008.9
20260501212255 60 195 0.9 2.6 0.00 0.00 0.00 43 1008.9
20260501211055 60 240 0.9 1.7 0.00 0.00 0.00 42 1009.1
20260501205943 61 166 0.0 0.9 0.00 0.00 0.00 39 1009.1
20260501205255 62 245 0.0 0.9 0.00 0.00 0.00 41 1009.1
20260501204055 61 61 0.0 1.7 0.00 0.00 0.00 39 1008.9
20260501202939 60 43 0.0 1.7 0.00 0.00 0.00 40 1008.9
20260501202256 62 232 0.0 0.9 0.00 0.00 0.00 41 1009.1
20260501195942 62 222 0.0 0.0 0.00 0.00 0.00 43 1008.9
20260501195253 63 218 0.9 1.7 0.00 0.00 0.00 39 1009.0
20260501194059 63 79 0.0 1.7 0.00 0.00 0.00 41 1009.2
20260501192256 61 229 0.9 1.7 0.00 0.00 0.00 44 1009.2
20260501185942 61 35 0.9 1.7 0.00 0.00 0.00 39 1009.4
20260501185259 61 194 0.9 1.7 0.00 0.00 0.00 42 1009.5
20260501184059 63 146 0.9 3.5 0.00 0.00 0.00 38 1009.7
20260501182940 63 105 0.0 0.9 0.00 0.00 0.00 42 1009.9
20260501181055 62 132 0.0 0.9 0.00 0.00 0.00 43 1009.9
20260501175943 61 77 0.9 1.7 0.00 0.00 0.00 46 1010.0
20260501175254 62 173 0.9 1.7 0.00 0.00 0.00 44 1010.1
20260501174054 62 203 0.0 0.0 0.00 0.00 0.00 44 1010.1
20260501172942 61 158 0.9 2.6 0.00 0.00 0.00 45 1010.2
20260501172258 60 98 0.9 1.7 0.00 0.00 0.00 47 1010.1
20260501165943 60 60 0.0 1.7 0.00 0.00 0.00 42 1010.3
20260501164053 60 131 0.9 1.7 0.00 0.00 0.00 42 1010.3
20260501162940 57 106 0.0 0.0 0.00 0.00 0.00 45 1010.3
20260501162256 57 58 0.0 1.7 0.00 0.02 0.00 45 1010.4